TimeHST,TemperatureF,Dew PointF,Humidity,Sea Level PressureIn,VisibilityMPH,Wind Direction,Wind SpeedMPH,Gust SpeedMPH,PrecipitationIn,Events,Conditions,WindDirDegrees,DateUTC
12:53 AM,72.0,62.1,71,29.91,10.0,ESE,4.6,-,N/A,,Clear,110,2011-12-21 10:53:00
1:53 AM,71.1,62.1,73,29.90,10.0,East,3.5,-,N/A,,Clear,90,2011-12-21 11:53:00
2:30 AM,71.6,60.8,69,29.88,10.0,East,3.5,-,N/A,,Mostly Cloudy,80,2011-12-21 12:30:00
2:44 AM,71.6,62.6,73,29.88,10.0,East,3.5,-,N/A,,Scattered Clouds,100,2011-12-21 12:44:00
2:53 AM,72.0,61.0,68,29.88,10.0,East,4.6,-,N/A,,Scattered Clouds,80,2011-12-21 12:53:00
3:53 AM,70.0,62.1,76,29.88,10.0,East,4.6,-,N/A,,Clear,90,2011-12-21 13:53:00
4:53 AM,71.1,63.0,75,29.89,10.0,East,4.6,-,N/A,,Clear,90,2011-12-21 14:53:00
5:53 AM,70.0,62.1,76,29.91,10.0,East,4.6,-,N/A,,Clear,90,2011-12-21 15:53:00
6:53 AM,72.0,64.0,76,29.92,10.0,East,5.8,-,N/A,,Clear,100,2011-12-21 16:53:00
7:53 AM,73.0,61.0,66,29.94,10.0,NNE,5.8,-,N/A,,Clear,30,2011-12-21 17:53:00
8:53 AM,77.0,64.9,66,29.95,10.0,NNW,4.6,-,N/A,,Clear,330,2011-12-21 18:53:00
9:53 AM,78.1,64.9,64,29.94,10.0,SW,6.9,-,N/A,,Clear,220,2011-12-21 19:53:00
10:53 AM,79.0,66.0,64,29.93,10.0,WSW,8.1,-,N/A,,Clear,240,2011-12-21 20:53:00
11:53 AM,81.0,66.9,62,29.91,10.0,SW,6.9,-,N/A,,Clear,220,2011-12-21 21:53:00
12:53 PM,78.1,66.0,66,29.87,10.0,SSW,5.8,-,N/A,,Overcast,210,2011-12-21 22:53:00
1:53 PM,79.0,64.0,60,29.84,10.0,SSW,6.9,-,N/A,,Mostly Cloudy,210,2011-12-21 23:53:00
2:53 PM,79.0,64.9,62,29.84,10.0,South,8.1,-,N/A,,Clear,190,2011-12-22 00:53:00
3:53 PM,79.0,66.0,64,29.84,10.0,SSE,10.4,-,N/A,,Overcast,160,2011-12-22 01:53:00
4:53 PM,78.1,66.0,66,29.86,10.0,South,10.4,-,N/A,,Overcast,170,2011-12-22 02:53:00
5:53 PM,78.1,63.0,60,29.88,10.0,SSE,8.1,-,N/A,,Mostly Cloudy,160,2011-12-22 03:53:00
6:53 PM,75.9,64.0,67,29.90,10.0,South,3.5,-,N/A,,Clear,170,2011-12-22 04:53:00
7:53 PM,75.0,63.0,66,29.93,10.0,Calm,Calm,-,N/A,,Clear,0,2011-12-22 05:53:00
8:53 PM,73.9,63.0,68,29.94,10.0,Calm,Calm,-,N/A,,Clear,0,2011-12-22 06:53:00
9:53 PM,73.9,62.1,66,29.96,10.0,ENE,3.5,-,N/A,,Clear,70,2011-12-22 07:53:00
10:53 PM,72.0,61.0,68,29.96,10.0,Calm,Calm,-,N/A,,Clear,0,2011-12-22 08:53:00
11:53 PM,73.0,61.0,66,29.95,10.0,ESE,9.2,-,N/A,,Clear,120,2011-12-22 09:53:00